Time,TemperatureF,DewpointF,PressureIn,WindDirection,WindDirectionDegrees,WindSpeedMPH,WindSpeedGustMPH,Humidity,HourlyPrecipIn,Conditions,Clouds,dailyrainin,SoftwareType,DateUTC
2013-05-04 00:00:00,47.1,12.1,30.03,NW,308,0.0,0.0,24,0.00,CLR,,0.00,WeatherDisplay:10.37,2013-05-04 07:00:00,
2013-05-04 00:10:00,47.7,12.6,30.03,NW,316,0.0,0.0,24,0.00,CLR,,0.00,WeatherDisplay:10.37,2013-05-04 07:10:00,
2013-05-04 00:20:00,47.5,12.4,30.03,NNW,348,0.0,0.0,24,0.00,CLR,,0.00,WeatherDisplay:10.37,2013-05-04 07:20:00,
2013-05-04 00:25:00,47.1,10.2,30.03,NNW,348,0.0,0.0,22,0.00,CLR,,0.00,WeatherDisplay:10.37,2013-05-04 07:25:00,
2013-05-04 00:30:00,46.8,9.9,30.03,NNW,348,0.0,0.0,22,0.00,CLR,,0.00,WeatherDisplay:10.37,2013-05-04 07:30:00,
2013-05-04 00:35:00,46.3,9.5,30.03,NNW,348,0.0,0.0,22,0.00,CLR,,0.00,WeatherDisplay:10.37,2013-05-04 07:35:00,
2013-05-04 00:40:00,45.6,8.8,30.03,NNW,348,0.0,0.0,22,0.00,CLR,,0.00,WeatherDisplay:10.37,2013-05-04 07:40:00,
2013-05-04 00:45:00,45.2,8.5,30.03,NNW,348,0.0,0.0,22,0.00,CLR,,0.00,WeatherDisplay:10.37,2013-05-04 07:45:00,
2013-05-04 00:50:00,45.1,8.5,30.03,NNW,348,0.0,0.0,22,0.00,CLR,,0.00,WeatherDisplay:10.37,2013-05-04 07:50:00,
2013-05-04 00:55:00,45.0,8.3,30.03,NNW,348,0.0,0.0,22,0.00,CLR,,0.00,WeatherDisplay:10.37,2013-05-04 07:55:00,
2013-05-04 01:00:00,44.8,8.2,30.03,NNW,348,0.0,0.0,22,0.00,CLR,,0.00,WeatherDisplay:10.37,2013-05-04 08:00:00,
2013-05-04 01:05:00,45.1,8.5,30.03,NNW,348,0.0,0.0,22,0.00,CLR,,0.00,WeatherDisplay:10.37,2013-05-04 08:05:00,
2013-05-04 01:10:00,45.1,8.5,30.03,NNW,348,0.0,0.0,22,0.00,CLR,,0.00,WeatherDisplay:10.37,2013-05-04 08:10:00,
2013-05-04 01:15:00,44.9,8.3,30.03,NNW,348,0.0,0.0,22,0.00,CLR,,0.00,WeatherDisplay:10.37,2013-05-04 08:15:00,
2013-05-04 01:20:00,44.8,8.2,30.03,NNW,348,0.0,0.0,22,0.00,CLR,,0.00,WeatherDisplay:10.37,2013-05-04 08:20:00,
2013-05-04 01:25:00,45.0,8.3,30.03,NNW,348,0.0,0.0,22,0.00,CLR,,0.00,WeatherDisplay:10.37,2013-05-04 08:25:00,
2013-05-04 01:30:00,45.0,8.3,30.03,NNW,348,0.0,0.0,22,0.00,CLR,,0.00,WeatherDisplay:10.37,2013-05-04 08:30:00,
2013-05-04 01:40:00,44.8,8.2,30.00,NNW,348,0.0,0.0,22,0.00,CLR,,0.00,WeatherDisplay:10.37,2013-05-04 08:40:00,
2013-05-04 01:50:00,44.6,8.0,30.00,NNW,348,0.0,0.0,22,0.00,CLR,,0.00,WeatherDisplay:10.37,2013-05-04 08:50:00,
2013-05-04 02:00:00,44.4,8.9,30.00,NNW,348,0.0,0.0,23,0.00,CLR,,0.00,WeatherDisplay:10.37,2013-05-04 09:00:00,
2013-05-04 02:05:00,44.6,8.0,30.00,NNW,348,0.0,0.0,22,0.00,CLR,,0.00,WeatherDisplay:10.37,2013-05-04 09:05:00,
2013-05-04 02:10:00,45.0,8.3,30.00,NNW,348,0.0,0.0,22,0.00,CLR,,0.00,WeatherDisplay:10.37,2013-05-04 09:10:00,
2013-05-04 02:20:00,45.4,8.7,30.00,NNW,348,0.0,0.0,22,0.00,CLR,,0.00,WeatherDisplay:10.37,2013-05-04 09:20:00,
2013-05-04 02:25:00,45.7,8.9,30.00,NNW,348,0.0,0.0,22,0.00,CLR,,0.00,WeatherDisplay:10.37,2013-05-04 09:25:00,
2013-05-04 02:30:00,46.2,9.4,30.00,NNW,348,0.0,0.0,22,0.00,CLR,,0.00,WeatherDisplay:10.37,2013-05-04 09:30:00,
2013-05-04 02:40:00,46.2,9.3,30.00,WSW,250,0.0,0.0,22,0.00,CLR,,0.00,WeatherDisplay:10.37,2013-05-04 09:40:00,
2013-05-04 02:45:00,45.8,9.0,30.00,SW,224,0.0,0.0,22,0.00,CLR,,0.00,WeatherDisplay:10.37,2013-05-04 09:45:00,
2013-05-04 02:50:00,45.3,8.6,30.00,SSW,211,0.0,0.0,22,0.00,CLR,,0.00,WeatherDisplay:10.37,2013-05-04 09:50:00,
2013-05-04 02:55:00,45.0,8.3,30.00,SSW,208,0.0,0.0,22,0.00,CLR,,0.00,WeatherDisplay:10.37,2013-05-04 09:55:00,
2013-05-04 03:00:00,44.5,8.9,30.00,SSW,208,0.0,0.0,23,0.00,CLR,,0.00,WeatherDisplay:10.37,2013-05-04 10:00:00,
2013-05-04 03:05:00,44.1,8.6,30.00,SSW,210,0.0,0.0,23,0.00,CLR,,0.00,WeatherDisplay:10.37,2013-05-04 10:05:00,
2013-05-04 03:10:00,43.9,8.4,30.00,SSW,212,0.0,0.0,23,0.00,CLR,,0.00,WeatherDisplay:10.37,2013-05-04 10:10:00,
2013-05-04 03:15:00,43.7,8.3,30.00,WSW,251,0.0,0.0,23,0.00,CLR,,0.00,WeatherDisplay:10.37,2013-05-04 10:15:00,
2013-05-04 03:20:00,43.3,8.0,29.97,NW,310,0.0,0.0,23,0.00,CLR,,0.00,WeatherDisplay:10.37,2013-05-04 10:20:00,
2013-05-04 03:25:00,43.0,7.6,29.97,NW,318,0.0,0.0,23,0.00,CLR,,0.00,WeatherDisplay:10.37,2013-05-04 10:25:00,
2013-05-04 03:30:00,42.8,7.5,29.97,NW,318,0.0,0.0,23,0.00,CLR,,0.00,WeatherDisplay:10.37,2013-05-04 10:30:00,
2013-05-04 03:35:00,42.9,7.6,29.97,NW,318,0.0,0.0,23,0.00,CLR,,0.00,WeatherDisplay:10.37,2013-05-04 10:35:00,
2013-05-04 03:40:00,43.3,8.0,29.97,NW,318,0.0,0.0,23,0.00,CLR,,0.00,WeatherDisplay:10.37,2013-05-04 10:40:00,
2013-05-04 03:45:00,43.5,8.1,29.97,NW,318,0.0,0.0,23,0.00,CLR,,0.00,WeatherDisplay:10.37,2013-05-04 10:45:00,
2013-05-04 03:50:00,43.7,8.3,29.97,NW,318,0.0,0.0,23,0.00,CLR,,0.00,WeatherDisplay:10.37,2013-05-04 10:50:00,
2013-05-04 03:55:00,43.9,8.4,29.97,NW,318,0.0,0.0,23,0.00,CLR,,0.00,WeatherDisplay:10.37,2013-05-04 10:55:00,
2013-05-04 04:00:00,44.2,8.7,29.97,NW,318,0.0,0.0,23,0.00,CLR,,0.00,WeatherDisplay:10.37,2013-05-04 11:00:00,
2013-05-04 04:05:00,44.2,8.7,29.97,NW,318,0.0,0.0,23,0.00,CLR,,0.00,WeatherDisplay:10.37,2013-05-04 11:05:00,
2013-05-04 04:10:00,44.1,8.6,29.97,NW,318,0.0,0.0,23,0.00,CLR,,0.00,WeatherDisplay:10.37,2013-05-04 11:10:00,
2013-05-04 04:15:00,43.7,8.3,29.97,NW,318,0.0,0.0,23,0.00,CLR,,0.00,WeatherDisplay:10.37,2013-05-04 11:15:00,
2013-05-04 04:20:00,43.7,8.3,29.97,NW,318,0.0,0.0,23,0.00,CLR,,0.00,WeatherDisplay:10.37,2013-05-04 11:20:00,
2013-05-04 04:30:00,43.5,8.1,29.97,NW,318,0.0,0.0,23,0.00,CLR,,0.00,WeatherDisplay:10.37,2013-05-04 11:30:00,
2013-05-04 04:40:00,43.0,7.6,29.97,NW,318,0.0,0.0,23,0.00,CLR,,0.00,WeatherDisplay:10.37,2013-05-04 11:40:00,
2013-05-04 04:50:00,42.5,7.2,29.97,NW,318,0.0,0.0,23,0.00,CLR,,0.00,WeatherDisplay:10.37,2013-05-04 11:50:00,
2013-05-04 05:00:00,42.6,7.3,29.97,NW,318,0.0,0.0,23,0.00,CLR,,0.00,WeatherDisplay:10.37,2013-05-04 12:00:00,
2013-05-04 05:10:00,42.8,7.5,29.97,NW,318,0.0,0.0,23,0.00,CLR,,0.00,WeatherDisplay:10.37,2013-05-04 12:10:00,
2013-05-04 05:25:00,42.1,6.9,29.97,NW,318,0.0,0.0,23,0.00,CLR,,0.00,WeatherDisplay:10.37,2013-05-04 12:25:00,
2013-05-04 05:30:00,41.7,6.6,29.97,NW,318,0.0,0.0,23,0.00,CLR,,0.00,WeatherDisplay:10.37,2013-05-04 12:30:00,
2013-05-04 05:35:00,41.7,6.6,29.97,NW,318,0.0,0.0,23,0.00,CLR,,0.00,WeatherDisplay:10.37,2013-05-04 12:35:00,
2013-05-04 05:40:00,42.1,6.9,29.97,NW,318,0.0,0.0,23,0.00,CLR,,0.00,WeatherDisplay:10.37,2013-05-04 12:40:00,
2013-05-04 05:45:00,42.5,7.2,29.97,NW,318,0.0,0.0,23,0.00,CLR,,0.00,WeatherDisplay:10.37,2013-05-04 12:45:00,
2013-05-04 05:50:00,42.8,7.5,29.97,NW,318,0.0,0.0,23,0.00,CLR,,0.00,WeatherDisplay:10.37,2013-05-04 12:50:00,
2013-05-04 05:55:00,42.9,7.6,29.97,NW,318,0.0,0.0,23,0.00,CLR,,0.00,WeatherDisplay:10.37,2013-05-04 12:55:00,
2013-05-04 06:00:00,43.0,7.6,29.97,NW,318,0.0,0.0,23,0.00,CLR,,0.00,WeatherDisplay:10.37,2013-05-04 13:00:00,
2013-05-04 06:05:00,42.8,7.5,29.97,NW,318,0.0,0.0,23,0.00,CLR,,0.00,WeatherDisplay:10.37,2013-05-04 13:05:00,
2013-05-04 06:10:00,42.4,7.2,29.97,NW,318,0.0,0.0,23,0.00,CLR,,0.00,WeatherDisplay:10.37,2013-05-04 13:10:00,
2013-05-04 06:15:00,42.3,7.0,29.97,NW,318,0.0,0.0,23,0.00,CLR,,0.00,WeatherDisplay:10.37,2013-05-04 13:15:00,
2013-05-04 06:20:00,42.1,6.9,29.97,NW,318,0.0,0.0,23,0.00,CLR,,0.00,WeatherDisplay:10.37,2013-05-04 13:20:00,
2013-05-04 06:25:00,42.1,6.9,29.97,NW,318,0.0,0.0,23,0.00,CLR,,0.00,WeatherDisplay:10.37,2013-05-04 13:25:00,
2013-05-04 06:30:00,41.9,6.7,29.97,NW,318,0.0,0.0,23,0.00,CLR,,0.00,WeatherDisplay:10.37,2013-05-04 13:30:00,
2013-05-04 06:35:00,41.9,6.7,29.97,NW,318,0.0,0.0,23,0.00,CLR,,0.00,WeatherDisplay:10.37,2013-05-04 13:35:00,
2013-05-04 06:40:00,42.3,7.1,29.97,NW,318,0.0,0.0,23,0.00,CLR,,0.00,WeatherDisplay:10.37,2013-05-04 13:40:00,
2013-05-04 06:50:00,43.8,8.4,29.97,NW,318,0.0,0.0,23,0.00,CLR,,0.00,WeatherDisplay:10.37,2013-05-04 13:50:00,
2013-05-04 07:00:00,45.2,8.5,29.97,NW,318,0.0,0.0,22,0.00,CLR,,0.00,WeatherDisplay:10.37,2013-05-04 14:00:00,
2013-05-04 07:05:00,45.7,9.0,29.97,NW,318,0.0,0.0,22,0.00,CLR,,0.00,WeatherDisplay:10.37,2013-05-04 14:05:00,
2013-05-04 07:10:00,46.2,9.4,29.97,NW,318,0.0,0.0,22,0.00,CLR,,0.00,WeatherDisplay:10.37,2013-05-04 14:10:00,
2013-05-04 07:15:00,46.4,11.5,29.97,NW,318,0.0,0.0,24,0.00,CLR,,0.00,WeatherDisplay:10.37,2013-05-04 14:15:00,
2013-05-04 07:20:00,46.7,11.7,29.97,NW,318,0.0,0.0,24,0.00,CLR,,0.00,WeatherDisplay:10.37,2013-05-04 14:20:00,
2013-05-04 07:30:00,47.9,12.8,29.97,NW,318,0.0,0.0,24,0.00,CLR,,0.00,WeatherDisplay:10.37,2013-05-04 14:30:00,
2013-05-04 07:40:00,49.4,14.1,29.97,NW,318,0.0,0.0,24,0.00,CLR,,0.00,WeatherDisplay:10.37,2013-05-04 14:40:00,
2013-05-04 07:50:00,51.3,15.7,29.97,NW,318,0.0,0.0,24,0.00,CLR,,0.00,WeatherDisplay:10.37,2013-05-04 14:50:00,
2013-05-04 07:55:00,52.1,15.4,29.97,NW,318,0.0,0.0,23,0.00,CLR,,0.00,WeatherDisplay:10.37,2013-05-04 14:55:00,
2013-05-04 08:05:00,53.4,16.5,29.97,NW,305,0.0,0.0,23,0.00,CLR,,0.00,WeatherDisplay:10.37,2013-05-04 15:05:00,
2013-05-04 08:10:00,54.0,17.0,29.97,West,281,0.0,0.0,23,0.00,CLR,,0.00,WeatherDisplay:10.37,2013-05-04 15:10:00,
2013-05-04 08:15:00,54.7,17.6,29.97,WSW,243,0.0,0.0,23,0.00,CLR,,0.00,WeatherDisplay:10.37,2013-05-04 15:15:00,
2013-05-04 08:20:00,55.3,17.1,29.97,SW,223,0.0,0.0,22,0.00,CLR,,0.00,WeatherDisplay:10.37,2013-05-04 15:20:00,
2013-05-04 08:25:00,55.9,17.6,29.97,SW,223,0.0,0.0,22,0.00,CLR,,0.00,WeatherDisplay:10.37,2013-05-04 15:25:00,
2013-05-04 08:30:00,56.3,17.9,29.97,SW,227,0.0,3.0,22,0.00,CLR,,0.00,WeatherDisplay:10.37,2013-05-04 15:30:00,
2013-05-04 08:40:00,57.8,19.1,29.97,SW,214,1.0,6.0,22,0.00,CLR,,0.00,WeatherDisplay:10.37,2013-05-04 15:40:00,
2013-05-04 08:45:00,58.9,19.0,29.97,SSW,208,1.0,6.0,21,0.00,CLR,,0.00,WeatherDisplay:10.37,2013-05-04 15:45:00,
2013-05-04 08:50:00,59.8,17.4,29.94,SW,217,1.0,6.0,19,0.00,CLR,,0.00,WeatherDisplay:10.37,2013-05-04 15:50:00,
2013-05-04 09:00:00,61.4,18.7,29.94,SW,226,2.0,6.0,19,0.00,CLR,,0.00,WeatherDisplay:10.37,2013-05-04 16:00:00,
2013-05-04 09:05:00,62.2,19.3,29.94,SW,223,2.0,8.0,19,0.00,CLR,,0.00,WeatherDisplay:10.37,2013-05-04 16:05:00,
2013-05-04 09:10:00,62.9,18.7,29.94,SSW,209,2.0,5.0,18,0.00,CLR,,0.00,WeatherDisplay:10.37,2013-05-04 16:10:00,
2013-05-04 09:15:00,63.8,19.4,29.94,SSW,195,1.0,6.0,18,0.00,CLR,,0.00,WeatherDisplay:10.37,2013-05-04 16:15:00,
2013-05-04 09:20:00,64.4,20.0,29.94,SSW,205,2.0,6.0,18,0.00,CLR,,0.00,WeatherDisplay:10.37,2013-05-04 16:20:00,
2013-05-04 09:30:00,65.5,20.8,29.94,SSW,207,2.0,6.0,18,0.00,CLR,,0.00,WeatherDisplay:10.37,2013-05-04 16:30:00,
2013-05-04 09:40:00,66.4,20.2,29.94,SW,216,3.0,6.0,17,0.00,CLR,,0.00,WeatherDisplay:10.37,2013-05-04 16:40:00,
2013-05-04 09:50:00,67.3,20.9,29.94,SSW,211,2.0,6.0,17,0.00,CLR,,0.00,WeatherDisplay:10.37,2013-05-04 16:50:00,
2013-05-04 09:55:00,67.8,21.3,29.94,SSW,204,2.0,5.0,17,0.00,CLR,,0.00,WeatherDisplay:10.37,2013-05-04 16:55:00,
2013-05-04 10:00:00,68.2,21.7,29.94,SSW,200,3.0,6.0,17,0.00,CLR,,0.00,WeatherDisplay:10.37,2013-05-04 17:00:00,
2013-05-04 10:05:00,68.4,21.8,29.97,SSW,211,3.0,8.0,17,0.00,CLR,,0.00,WeatherDisplay:10.37,2013-05-04 17:05:00,
2013-05-04 10:10:00,68.7,22.1,29.97,SSW,213,3.0,6.0,17,0.00,CLR,,0.00,WeatherDisplay:10.37,2013-05-04 17:10:00,
2013-05-04 10:15:00,69.1,22.4,29.97,SSW,209,3.0,6.0,17,0.00,CLR,,0.00,WeatherDisplay:10.37,2013-05-04 17:15:00,
2013-05-04 10:20:00,69.2,22.5,29.97,SW,219,5.0,8.0,17,0.00,CLR,,0.00,WeatherDisplay:10.37,2013-05-04 17:20:00,
2013-05-04 10:25:00,69.1,22.4,29.97,SSW,212,3.0,8.0,17,0.00,CLR,,0.00,WeatherDisplay:10.37,2013-05-04 17:25:00,
2013-05-04 10:30:00,69.4,22.6,29.97,SSW,213,5.0,8.0,17,0.00,CLR,,0.00,WeatherDisplay:10.37,2013-05-04 17:30:00,
2013-05-04 10:40:00,68.5,22.0,29.97,WSW,240,3.0,8.0,17,0.00,CLR,,0.00,WeatherDisplay:10.37,2013-05-04 17:40:00,
2013-05-04 10:50:00,68.5,22.0,29.94,WSW,240,3.0,9.0,17,0.00,CLR,,0.00,WeatherDisplay:10.37,2013-05-04 17:50:00,
2013-05-04 10:55:00,68.7,22.1,29.94,WSW,253,3.0,8.0,17,0.00,CLR,,0.00,WeatherDisplay:10.37,2013-05-04 17:55:00,
2013-05-04 11:00:00,69.3,22.5,29.94,West,262,5.0,8.0,17,0.00,CLR,,0.00,WeatherDisplay:10.37,2013-05-04 18:00:00,
2013-05-04 11:05:00,69.3,22.6,29.94,WSW,241,3.0,7.0,17,0.00,CLR,,0.00,WeatherDisplay:10.37,2013-05-04 18:05:00,
2013-05-04 11:10:00,69.4,22.7,29.94,SW,234,3.0,9.0,17,0.00,CLR,,0.00,WeatherDisplay:10.37,2013-05-04 18:10:00,
2013-05-04 11:15:00,69.6,22.8,29.94,SW,234,1.0,8.0,17,0.00,CLR,,0.00,WeatherDisplay:10.37,2013-05-04 18:15:00,
2013-05-04 11:20:00,70.3,23.4,29.94,SW,234,3.0,8.0,17,0.00,CLR,,0.00,WeatherDisplay:10.37,2013-05-04 18:20:00,
2013-05-04 11:25:00,70.7,23.7,29.94,SW,228,1.0,8.0,17,0.00,CLR,,0.00,WeatherDisplay:10.37,2013-05-04 18:25:00,
2013-05-04 11:30:00,70.9,23.9,29.94,SW,221,5.0,8.0,17,0.00,CLR,,0.00,WeatherDisplay:10.37,2013-05-04 18:30:00,
2013-05-04 11:35:00,70.9,23.9,29.94,SW,227,5.0,8.0,17,0.00,CLR,,0.00,WeatherDisplay:10.37,2013-05-04 18:35:00,
2013-05-04 11:40:00,70.7,23.7,29.94,SSW,206,3.0,6.0,17,0.00,CLR,,0.00,WeatherDisplay:10.37,2013-05-04 18:40:00,
2013-05-04 11:50:00,70.2,23.3,29.94,SW,223,5.0,10.0,17,0.00,CLR,,0.00,WeatherDisplay:10.37,2013-05-04 18:50:00,
2013-05-04 11:55:00,70.2,23.3,29.94,SW,214,2.0,10.0,17,0.00,CLR,,0.00,WeatherDisplay:10.37,2013-05-04 18:55:00,
2013-05-04 12:00:00,70.5,23.6,29.94,SSW,208,3.0,7.0,17,0.00,CLR,,0.00,WeatherDisplay:10.37,2013-05-04 19:00:00,
2013-05-04 12:05:00,70.7,23.7,29.94,SW,218,3.0,8.0,17,0.00,CLR,,0.00,WeatherDisplay:10.37,2013-05-04 19:05:00,
2013-05-04 12:10:00,70.5,23.6,29.94,SSW,209,5.0,11.0,17,0.00,CLR,,0.00,WeatherDisplay:10.37,2013-05-04 19:10:00,
2013-05-04 12:20:00,69.8,23.0,29.94,SW,228,3.0,9.0,17,0.00,CLR,,0.00,WeatherDisplay:10.37,2013-05-04 19:20:00,
2013-05-04 12:25:00,70.2,23.3,29.94,SW,228,6.0,13.0,17,0.00,CLR,,0.00,WeatherDisplay:10.37,2013-05-04 19:25:00,
2013-05-04 12:30:00,70.2,23.3,29.94,SW,227,6.0,12.0,17,0.00,CLR,,0.00,WeatherDisplay:10.37,2013-05-04 19:30:00,
2013-05-04 12:40:00,69.9,23.1,29.94,SW,224,7.0,12.0,17,0.00,CLR,,0.00,WeatherDisplay:10.37,2013-05-04 19:40:00,
2013-05-04 12:50:00,69.4,22.7,29.94,SW,224,5.0,9.0,17,0.00,CLR,,0.00,WeatherDisplay:10.37,2013-05-04 19:50:00,
2013-05-04 13:00:00,70.1,23.2,29.94,SW,220,6.0,10.0,17,0.00,CLR,,0.00,WeatherDisplay:10.37,2013-05-04 20:00:00,
2013-05-04 13:05:00,70.0,23.1,29.91,SW,217,3.0,8.0,17,0.00,CLR,,0.00,WeatherDisplay:10.37,2013-05-04 20:05:00,
2013-05-04 13:10:00,70.0,23.1,29.91,SW,222,7.0,12.0,17,0.00,CLR,,0.00,WeatherDisplay:10.37,2013-05-04 20:10:00,
2013-05-04 13:20:00,70.2,23.3,29.91,SW,224,5.0,8.0,17,0.00,CLR,,0.00,WeatherDisplay:10.37,2013-05-04 20:20:00,
2013-05-04 13:25:00,70.3,23.4,29.91,SW,230,6.0,13.0,17,0.00,CLR,,0.00,WeatherDisplay:10.37,2013-05-04 20:25:00,
2013-05-04 13:30:00,69.6,22.8,29.91,SW,236,8.0,13.0,17,0.00,CLR,,0.00,WeatherDisplay:10.37,2013-05-04 20:30:00,
2013-05-04 13:40:00,69.0,22.3,29.91,WSW,246,7.0,12.0,17,0.00,CLR,,0.00,WeatherDisplay:10.37,2013-05-04 20:40:00,
2013-05-04 13:45:00,68.5,22.0,29.91,SW,232,8.0,15.0,17,0.00,CLR,,0.00,WeatherDisplay:10.37,2013-05-04 20:45:00,
2013-05-04 13:50:00,68.4,21.8,29.91,SW,222,6.0,13.0,17,0.00,CLR,,0.00,WeatherDisplay:10.37,2013-05-04 20:50:00,
2013-05-04 14:00:00,67.9,21.4,29.91,SW,232,3.0,15.0,17,0.00,CLR,,0.00,WeatherDisplay:10.37,2013-05-04 21:00:00,
2013-05-04 14:05:00,68.4,21.8,29.91,SW,227,6.0,13.0,17,0.00,CLR,,0.00,WeatherDisplay:10.37,2013-05-04 21:05:00,
2013-05-04 14:10:00,68.5,22.0,29.91,SW,224,3.0,13.0,17,0.00,CLR,,0.00,WeatherDisplay:10.37,2013-05-04 21:10:00,
2013-05-04 14:15:00,68.9,22.2,29.91,SW,223,6.0,12.0,17,0.00,CLR,,0.00,WeatherDisplay:10.37,2013-05-04 21:15:00,
2013-05-04 14:20:00,69.0,22.3,29.91,WSW,241,7.0,13.0,17,0.00,CLR,,0.00,WeatherDisplay:10.37,2013-05-04 21:20:00,
2013-05-04 14:30:00,68.4,21.9,29.91,SW,225,7.0,13.0,17,0.00,CLR,,0.00,WeatherDisplay:10.37,2013-05-04 21:30:00,
2013-05-04 14:40:00,66.9,8.5,29.85,SSW,208,5.0,13.0,10,0.00,CLR,,0.00,WeatherDisplay:10.37,2013-05-04 21:40:00,
2013-05-04 14:45:00,66.9,8.5,29.85,SW,230,3.0,8.0,10,0.00,CLR,,0.00,WeatherDisplay:10.37,2013-05-04 21:45:00,
2013-05-04 14:50:00,67.3,8.8,29.85,WSW,247,7.0,15.0,10,0.00,CLR,,0.00,WeatherDisplay:10.37,2013-05-04 21:50:00,
2013-05-04 15:00:00,67.1,8.6,29.85,SW,229,5.0,10.0,10,0.00,CLR,,0.00,WeatherDisplay:10.37,2013-05-04 22:00:00,
2013-05-04 15:05:00,66.9,8.5,29.85,SW,229,5.0,8.0,10,0.00,CLR,,0.00,WeatherDisplay:10.37,2013-05-04 22:05:00,
2013-05-04 15:10:00,67.1,8.6,29.85,WSW,237,7.0,10.0,10,0.00,CLR,,0.00,WeatherDisplay:10.37,2013-05-04 22:10:00,
2013-05-04 15:15:00,66.3,8.0,29.85,SW,233,6.0,15.0,10,0.00,CLR,,0.00,WeatherDisplay:10.37,2013-05-04 22:15:00,
2013-05-04 15:20:00,66.4,8.1,29.85,SW,225,6.0,16.0,10,0.00,CLR,,0.00,WeatherDisplay:10.37,2013-05-04 22:20:00,
2013-05-04 15:25:00,66.1,7.9,29.85,SW,236,6.0,12.0,10,0.00,CLR,,0.00,WeatherDisplay:10.37,2013-05-04 22:25:00,
2013-05-04 15:30:00,66.0,7.8,29.85,SW,230,7.0,17.0,10,0.00,CLR,,0.00,WeatherDisplay:10.37,2013-05-04 22:30:00,
2013-05-04 15:35:00,66.0,7.8,29.85,SSW,202,5.0,10.0,10,0.00,CLR,,0.00,WeatherDisplay:10.37,2013-05-04 22:35:00,
2013-05-04 15:40:00,65.8,7.7,29.85,SSW,200,5.0,11.0,10,0.00,CLR,,0.00,WeatherDisplay:10.37,2013-05-04 22:40:00,
2013-05-04 15:45:00,65.5,7.4,29.85,SW,221,6.0,8.0,10,0.00,CLR,,0.00,WeatherDisplay:10.37,2013-05-04 22:45:00,
2013-05-04 15:50:00,65.3,7.2,29.85,SW,230,2.0,7.0,10,0.00,CLR,,0.00,WeatherDisplay:10.37,2013-05-04 22:50:00,
2013-05-04 15:55:00,64.8,6.9,29.85,SW,234,7.0,12.0,10,0.00,CLR,,0.00,WeatherDisplay:10.37,2013-05-04 22:55:00,
2013-05-04 16:00:00,64.2,8.5,29.85,SW,227,5.0,8.0,11,0.00,CLR,,0.00,WeatherDisplay:10.37,2013-05-04 23:00:00,
2013-05-04 16:05:00,63.9,8.3,29.85,SSW,204,6.0,12.0,11,0.00,CLR,,0.00,WeatherDisplay:10.37,2013-05-04 23:05:00,
2013-05-04 16:10:00,63.5,8.0,29.85,SSW,202,3.0,8.0,11,0.00,CLR,,0.00,WeatherDisplay:10.37,2013-05-04 23:10:00,
2013-05-04 16:20:00,62.8,7.4,29.85,SSW,204,6.0,8.0,11,0.00,CLR,,0.00,WeatherDisplay:10.37,2013-05-04 23:20:00,
2013-05-04 16:25:00,62.4,7.1,29.85,SW,221,5.0,11.0,11,0.00,CLR,,0.00,WeatherDisplay:10.37,2013-05-04 23:25:00,
2013-05-04 16:30:00,62.4,7.1,29.85,SSW,213,6.0,9.0,11,0.00,CLR,,0.00,WeatherDisplay:10.37,2013-05-04 23:30:00,
2013-05-04 16:35:00,62.1,6.8,29.82,SW,214,5.0,13.0,11,0.00,CLR,,0.00,WeatherDisplay:10.37,2013-05-04 23:35:00,
2013-05-04 16:40:00,61.1,6.1,29.82,SW,222,7.0,13.0,11,0.00,CLR,,0.00,WeatherDisplay:10.37,2013-05-04 23:40:00,
2013-05-04 16:50:00,59.9,30.7,29.91,SSW,200,6.0,13.0,33,0.00,CLR,,0.00,WeatherDisplay:10.37,2013-05-04 23:50:00,
2013-05-04 17:00:00,59.2,31.5,29.91,WSW,237,5.0,12.0,35,0.00,CLR,,0.00,WeatherDisplay:10.37,2013-05-05 00:00:00,
2013-05-04 17:05:00,59.0,32.1,29.91,SW,229,3.0,9.0,36,0.00,CLR,,0.00,WeatherDisplay:10.37,2013-05-05 00:05:00,
2013-05-04 17:10:00,58.4,31.5,29.91,South,186,2.0,8.0,36,0.00,CLR,,0.00,WeatherDisplay:10.37,2013-05-05 00:10:00,
2013-05-04 17:15:00,58.1,31.9,29.91,SW,215,5.0,13.0,37,0.00,CLR,,0.00,WeatherDisplay:10.37,2013-05-05 00:15:00,
2013-05-04 17:20:00,57.9,31.8,29.91,WSW,248,5.0,13.0,37,0.00,CLR,,0.00,WeatherDisplay:10.37,2013-05-05 00:20:00,
2013-05-04 17:30:00,57.4,31.3,29.91,SSW,211,2.0,8.0,37,0.00,CLR,,0.00,WeatherDisplay:10.37,2013-05-05 00:30:00,
2013-05-04 17:40:00,56.5,31.1,29.91,SW,214,5.0,8.0,38,0.00,CLR,,0.00,WeatherDisplay:10.37,2013-05-05 00:40:00,
2013-05-04 17:45:00,55.9,30.7,29.91,SSW,195,2.0,7.0,38,0.00,CLR,,0.00,WeatherDisplay:10.37,2013-05-05 00:45:00,
2013-05-04 17:50:00,55.4,30.9,29.91,SSW,199,5.0,12.0,39,0.00,CLR,,0.00,WeatherDisplay:10.37,2013-05-05 00:50:00,
2013-05-04 17:55:00,55.2,31.3,29.91,SSW,213,1.0,12.0,40,0.00,CLR,,0.00,WeatherDisplay:10.37,2013-05-05 00:55:00,
2013-05-04 18:00:00,55.2,31.3,29.91,SSW,210,1.0,5.0,40,0.00,CLR,,0.00,WeatherDisplay:10.37,2013-05-05 01:00:00,
2013-05-04 18:05:00,54.9,31.0,29.91,SSW,208,0.0,6.0,40,0.00,CLR,,0.00,WeatherDisplay:10.37,2013-05-05 01:05:00,
2013-05-04 18:10:00,54.3,30.5,29.91,SSW,197,1.0,6.0,40,0.00,CLR,,0.00,WeatherDisplay:10.37,2013-05-05 01:10:00,
2013-05-04 18:20:00,53.6,31.0,29.91,SSW,206,3.0,8.0,42,0.00,CLR,,0.00,WeatherDisplay:10.37,2013-05-05 01:20:00,
2013-05-04 18:30:00,53.1,30.0,29.91,South,176,2.0,6.0,41,0.00,CLR,,0.00,WeatherDisplay:10.37,2013-05-05 01:30:00,
2013-05-04 18:35:00,52.9,29.8,29.91,South,171,1.0,4.0,41,0.00,CLR,,0.00,WeatherDisplay:10.37,2013-05-05 01:35:00,
2013-05-04 18:40:00,52.7,29.0,29.91,SSE,166,0.0,5.0,40,0.00,CLR,,0.00,WeatherDisplay:10.37,2013-05-05 01:40:00,
2013-05-04 18:50:00,52.2,29.1,29.91,SSE,167,0.0,3.0,41,0.00,CLR,,0.00,WeatherDisplay:10.37,2013-05-05 01:50:00,
2013-05-04 19:00:00,51.4,27.9,29.91,South,174,2.0,6.0,40,0.00,CLR,,0.00,WeatherDisplay:10.37,2013-05-05 02:00:00,
2013-05-04 19:05:00,51.3,28.3,29.91,South,173,1.0,5.0,41,0.00,CLR,,0.00,WeatherDisplay:10.37,2013-05-05 02:05:00,
2013-05-04 19:10:00,50.9,28.6,29.91,SSW,192,3.0,6.0,42,0.00,CLR,,0.00,WeatherDisplay:10.37,2013-05-05 02:10:00,
2013-05-04 19:15:00,50.7,28.4,29.91,SW,219,0.0,6.0,42,0.00,CLR,,0.00,WeatherDisplay:10.37,2013-05-05 02:15:00,
2013-05-04 19:20:00,50.2,28.5,29.91,SW,226,2.0,6.0,43,0.00,CLR,,0.00,WeatherDisplay:10.37,2013-05-05 02:20:00,
2013-05-04 19:30:00,49.2,29.3,29.91,SSE,168,2.0,4.0,46,0.00,CLR,,0.00,WeatherDisplay:10.37,2013-05-05 02:30:00,
2013-05-04 19:40:00,48.7,30.9,29.91,SSW,199,0.0,6.0,50,0.00,CLR,,0.00,WeatherDisplay:10.37,2013-05-05 02:40:00,
2013-05-04 19:45:00,48.4,31.1,29.91,South,180,0.0,6.0,51,0.00,CLR,,0.00,WeatherDisplay:10.37,2013-05-05 02:45:00,
2013-05-04 19:50:00,47.8,31.5,29.91,South,188,2.0,10.0,53,0.00,CLR,,0.00,WeatherDisplay:10.37,2013-05-05 02:50:00,
2013-05-04 19:55:00,47.7,31.3,29.91,SSW,212,0.0,6.0,53,0.00,CLR,,0.00,WeatherDisplay:10.37,2013-05-05 02:55:00,
2013-05-04 20:00:00,47.3,31.5,29.91,SW,216,3.0,6.0,54,0.00,CLR,,0.00,WeatherDisplay:10.37,2013-05-05 03:00:00,
2013-05-04 20:05:00,47.3,31.5,29.91,SW,227,3.0,7.0,54,0.00,CLR,,0.00,WeatherDisplay:10.37,2013-05-05 03:05:00,
2013-05-04 20:10:00,47.3,31.5,29.91,SSW,199,3.0,6.0,54,0.00,CLR,,0.00,WeatherDisplay:10.37,2013-05-05 03:10:00,
2013-05-04 20:15:00,47.3,31.0,29.91,SSW,205,3.0,7.0,53,0.00,CLR,,0.00,WeatherDisplay:10.37,2013-05-05 03:15:00,
2013-05-04 20:20:00,47.3,31.5,29.91,SW,221,5.0,8.0,54,0.00,CLR,,0.00,WeatherDisplay:10.37,2013-05-05 03:20:00,
2013-05-04 20:30:00,47.1,31.3,29.91,SW,227,5.0,10.0,54,0.00,CLR,,0.00,WeatherDisplay:10.37,2013-05-05 03:30:00,
2013-05-04 20:40:00,47.1,31.3,29.91,SW,223,5.0,13.0,54,0.00,CLR,,0.00,WeatherDisplay:10.37,2013-05-05 03:40:00,
2013-05-04 20:45:00,47.1,31.3,29.91,SW,234,7.0,13.0,54,0.00,CLR,,0.00,WeatherDisplay:10.37,2013-05-05 03:45:00,
2013-05-04 20:50:00,47.1,31.3,29.91,SW,235,6.0,10.0,54,0.00,CLR,,0.00,WeatherDisplay:10.37,2013-05-05 03:50:00,
2013-05-04 20:55:00,47.1,31.3,29.91,SW,225,5.0,11.0,54,0.00,CLR,,0.00,WeatherDisplay:10.37,2013-05-05 03:55:00,
2013-05-04 21:00:00,47.1,31.3,29.91,SW,232,8.0,15.0,54,0.00,CLR,,0.00,WeatherDisplay:10.37,2013-05-05 04:00:00,
2013-05-04 21:05:00,46.8,28.1,29.91,WSW,247,6.0,15.0,48,0.00,CLR,,0.00,WeatherDisplay:10.37,2013-05-05 04:05:00,
2013-05-04 21:10:00,46.8,23.7,29.91,WSW,247,6.0,15.0,40,0.00,CLR,,0.00,WeatherDisplay:10.37,2013-05-05 04:10:00,
2013-05-04 21:15:00,46.8,23.1,29.91,SW,235,8.0,13.0,39,0.00,CLR,,0.00,WeatherDisplay:10.37,2013-05-05 04:15:00,
2013-05-04 21:20:00,46.8,24.3,29.91,SW,228,6.0,14.0,41,0.00,CLR,,0.00,WeatherDisplay:10.37,2013-05-05 04:20:00,
2013-05-04 21:25:00,46.6,23.5,29.91,SW,223,7.0,15.0,40,0.00,CLR,,0.00,WeatherDisplay:10.37,2013-05-05 04:25:00,
2013-05-04 21:30:00,46.6,23.5,29.91,SW,230,8.0,15.0,40,0.00,CLR,,0.00,WeatherDisplay:10.37,2013-05-05 04:30:00,
2013-05-04 21:40:00,46.3,22.6,29.91,SW,219,7.0,13.0,39,0.00,CLR,,0.00,WeatherDisplay:10.37,2013-05-05 04:40:00,
2013-05-04 21:45:00,46.2,23.2,29.91,SW,216,6.0,13.0,40,0.00,CLR,,0.00,WeatherDisplay:10.37,2013-05-05 04:45:00,
2013-05-04 21:50:00,46.0,22.4,29.91,SW,224,8.0,13.0,39,0.00,CLR,,0.00,WeatherDisplay:10.37,2013-05-05 04:50:00,
2013-05-04 22:00:00,45.9,21.7,29.91,WSW,240,5.0,10.0,38,0.00,CLR,,0.00,WeatherDisplay:10.37,2013-05-05 05:00:00,
2013-05-04 22:10:00,45.9,21.7,29.91,SW,236,3.0,11.0,38,0.00,CLR,,0.00,WeatherDisplay:10.37,2013-05-05 05:10:00,
2013-05-04 22:15:00,45.7,21.5,29.91,SW,235,5.0,8.0,38,0.00,CLR,,0.00,WeatherDisplay:10.37,2013-05-05 05:15:00,
2013-05-04 22:20:00,45.7,20.9,29.91,SW,224,6.0,8.0,37,0.00,CLR,,0.00,WeatherDisplay:10.37,2013-05-05 05:20:00,
2013-05-04 22:25:00,45.7,21.5,29.91,SW,220,5.0,9.0,38,0.00,CLR,,0.00,WeatherDisplay:10.37,2013-05-05 05:25:00,
2013-05-04 22:30:00,45.5,20.7,29.91,SW,214,2.0,12.0,37,0.00,CLR,,0.00,WeatherDisplay:10.37,2013-05-05 05:30:00,
2013-05-04 22:35:00,45.5,20.7,29.91,SSW,203,3.0,6.0,37,0.00,CLR,,0.00,WeatherDisplay:10.37,2013-05-05 05:35:00,
2013-05-04 22:40:00,45.5,20.7,29.91,SSW,204,2.0,6.0,37,0.00,CLR,,0.00,WeatherDisplay:10.37,2013-05-05 05:40:00,
2013-05-04 22:50:00,45.3,20.5,29.91,South,177,3.0,6.0,37,0.00,CLR,,0.00,WeatherDisplay:10.37,2013-05-05 05:50:00,
2013-05-04 22:55:00,45.5,20.1,29.91,South,180,2.0,6.0,36,0.00,CLR,,0.00,WeatherDisplay:10.37,2013-05-05 05:55:00,
2013-05-04 23:00:00,45.5,18.7,29.91,South,189,3.0,8.0,34,0.00,CLR,,0.00,WeatherDisplay:10.37,2013-05-05 06:00:00,
2013-05-04 23:05:00,45.5,19.4,29.91,South,177,5.0,10.0,35,0.00,CLR,,0.00,WeatherDisplay:10.37,2013-05-05 06:05:00,
2013-05-04 23:10:00,45.3,18.6,29.91,South,191,1.0,6.0,34,0.00,CLR,,0.00,WeatherDisplay:10.37,2013-05-05 06:10:00,
2013-05-04 23:15:00,45.0,18.2,29.91,SSW,205,2.0,6.0,34,0.00,CLR,,0.00,WeatherDisplay:10.37,2013-05-05 06:15:00,
2013-05-04 23:20:00,45.0,16.8,29.91,SW,217,2.0,12.0,32,0.00,CLR,,0.00,WeatherDisplay:10.37,2013-05-05 06:20:00,
2013-05-04 23:30:00,44.4,16.4,29.91,West,266,0.0,7.0,32,0.00,CLR,,0.00,WeatherDisplay:10.37,2013-05-05 06:30:00,
2013-05-04 23:35:00,44.6,16.5,29.91,SW,228,1.0,7.0,32,0.00,CLR,,0.00,WeatherDisplay:10.37,2013-05-05 06:35:00,
2013-05-04 23:40:00,44.2,16.2,29.91,SSW,197,0.0,6.0,32,0.00,CLR,,0.00,WeatherDisplay:10.37,2013-05-05 06:40:00,
2013-05-04 23:45:00,44.4,16.4,29.91,South,181,0.0,8.0,32,0.00,CLR,,0.00,WeatherDisplay:10.37,2013-05-05 06:45:00,
2013-05-04 23:50:00,44.4,16.4,29.91,SSE,166,0.0,9.0,32,0.00,CLR,,0.00,WeatherDisplay:10.37,2013-05-05 06:50:00,